Flag for U.S.A. Weather past 2 weeks in Irvine, California, U.S.A.

Now
65 °F

Partly cloudy.


Feels Like: 65 °F
Forecast: 58 / 72 °F
Wind: No wind

Location: John Wayne Airport-Orange County Airport

Current Time: Jan 28, 2015 at 10:38:26 PM

Latest Report: Jan 28, 2015 at 9:53 PM


Visibility: 10 mi

Pressure: 30.07 "Hg

Humidity: 68%

Dew point: 54 °F

Location of IrvineLocation

Historic Weather in Irvine — Graph

°F

Irvine temperature yesterday

Maximum temperature yesterday: 74 °F (at 12:53 PM)
Minimum temperature yesterday: 55 °F (at 4:53 AM)
Average temperature yesterday: 64 °F

Past Weeks' High & Low Weather Summary

 TemperatureHumidityPressure
High84 °F (Jan 25, 12:53 PM)90% (Jan 20, 1:53 AM)30.25 "Hg (Jan 20, 1:53 AM)
Low49 °F (Jan 15, 5:53 AM)5% (Jan 23, 1:53 PM)29.93 "Hg (Jan 25, 2:53 PM)
Average64 °F51%30.10 "Hg
* Reported Jan 13 8:53 PM — Jan 28 8:53 PM, Irvine, Weather by CustomWeather, © 2014

Note: Actual official high and low records may vary slightly from our data, if they occured in-between our weather recording intervals... More about our weather records

Advertising

Irvine weather history for previous 24 hours

 ConditionsComfort  
Time TempWeatherWind HumidityBarometerVisibility
8:53 PM
Jan 28
66 °FPartly cloudy.No wind65%30.08 "Hg10 mi
7:53 PM66 °FPartly cloudy.No wind68%30.07 "Hg10 mi
6:53 PM68 °FMostly cloudy.No wind57%30.08 "Hg10 mi
5:53 PM70 °FMostly cloudy.No wind47%30.06 "Hg10 mi
4:53 PM71 °FMore clouds than sun.No wind47%30.05 "Hg10 mi
3:53 PM72 °FMore clouds than sun.No wind44%30.05 "Hg10 mi
2:53 PM72 °FBroken clouds.6 mph46%30.07 "Hg10 mi
1:53 PM74 °FBroken clouds.5 mph41%30.06 "Hg10 mi
12:53 PM75 °FMore clouds than sun.6 mph36%30.05 "Hg10 mi
11:53 AM74 °FMore clouds than sun.5 mph37%30.08 "Hg10 mi
10:53 AM71 °FMore clouds than sun.No wind44%30.11 "Hg10 mi
9:53 AM67 °FMore clouds than sun.No wind51%30.12 "Hg10 mi
8:53 AM62 °FBroken clouds.3 mph62%30.14 "Hg10 mi
7:53 AM58 °FBroken clouds.No wind72%30.14 "Hg10 mi
6:53 AM56 °FScattered clouds.3 mph72%30.13 "Hg10 mi
5:53 AM56 °FPassing clouds.No wind75%30.13 "Hg10 mi
4:53 AM55 °FClear.No wind77%30.12 "Hg10 mi
3:53 AM56 °FClear.No wind75%30.12 "Hg10 mi
2:53 AM57 °FClear.No wind74%30.15 "Hg10 mi
1:53 AM58 °FClear.No wind75%30.16 "Hg10 mi
12:53 AM58 °FClear.No wind75%30.16 "Hg10 mi
11:53 PM
Jan 27
60 °FClear.No wind69%30.15 "Hg10 mi
10:53 PM61 °FClear.No wind70%30.15 "Hg10 mi
Weather by CustomWeather, © 2014

See weather overviewHow to use our weather pages